Home > Weather > Huddersfield > Past weeks

Flag for United Kingdom Past Weather in Huddersfield, England, United Kingdom — Yesterday and Last 2 Weeks

Now
52 °F

Light rain. Scattered clouds.


Feels Like: 51 °F
Forecast: 49 / 60 °F
Wind: 3 mph from West

Location: Leeds And Bradford

Current Time: Jun 28, 2016 at 7:47:59 PM

Latest Report: Jun 28, 2016 at 7:20 PM


Visibility: N/A

Pressure: 29.77 "Hg

Humidity: 94%

Dew Point: 50 °F

Location of HuddersfieldLocation

Past Weather in Huddersfield — Graph

°F

Huddersfield Temperature Yesterday

Maximum temperature yesterday: 61 °F (at 2:20 PM)
Minimum temperature yesterday: 52 °F (at 4:50 AM)
Average temperature yesterday: 56 °F

High & Low Weather Summary for the Past Weeks

 TemperatureHumidityPressure
High72 °F (Jun 23, 4:20 PM)100% (Jun 13, 6:50 PM)30.18 "Hg (Jun 13, 6:50 PM)
Low46 °F (Jun 19, 2:50 AM)49% (Jun 21, 12:20 PM)29.36 "Hg (Jun 14, 4:20 PM)
Average56 °F84%29.86 "Hg
* Reported Jun 13 6:20 PM — Jun 28 6:20 PM, Huddersfield, Weather by CustomWeather, © 2016

Note: Actual official high and low records may vary slightly from our data, if they occured in-between our weather recording intervals... More about our weather records

Advertising

Huddersfield Weather History for the Previous 24 Hours

Scroll right to see more
 ConditionsComfort  
Time TempWeatherWind HumidityBarometerVisibility
6:20 PM
Tue, Jun 28
52 °FLight rain. Scattered clouds.6 mph94%29.77 "HgN/A
5:20 PM54 °FLight rain. Scattered clouds.7 mph82%29.80 "HgN/A
4:50 PM54 °FSprinkles. Scattered clouds.8 mph88%29.80 "HgN/A
4:20 PM55 °FSprinkles. Scattered clouds.9 mph82%29.80 "HgN/A
3:50 PM54 °FScattered clouds.3 mph82%29.80 "HgN/A
3:20 PM54 °FSprinkles. Scattered clouds.12 mph88%29.83 "HgN/A
2:50 PM59 °FSprinkles. Scattered clouds.5 mph72%29.83 "HgN/A
2:20 PM59 °FScattered clouds.6 mph72%29.86 "HgN/A
1:50 PM59 °FScattered clouds.8 mph72%29.86 "HgN/A
1:20 PM57 °FScattered clouds.7 mph77%29.89 "HgN/A
12:50 PM57 °FScattered clouds.8 mph77%29.89 "HgN/A
12:20 PM59 °FScattered clouds.9 mph72%29.89 "HgN/A
11:50 AM59 °FScattered clouds.9 mph72%29.92 "HgN/A
11:20 AM59 °FScattered clouds.10 mph72%29.92 "HgN/A
10:50 AM59 °FScattered clouds.8 mph82%29.95 "HgN/A
10:20 AM57 °FSprinkles. Scattered clouds.6 mph82%29.95 "HgN/A
9:50 AM59 °FScattered clouds.7 mph68%29.95 "HgN/A
9:20 AM59 °FPassing clouds.6 mph72%29.95 "HgN/A
8:50 AM57 °FPassing clouds.5 mph82%29.98 "HgN/A
8:20 AM55 °FPassing clouds.3 mph88%29.98 "HgN/A
7:50 AM54 °FPassing clouds.3 mph94%29.98 "HgN/A
7:20 AM54 °FPassing clouds.3 mph88%29.98 "HgN/A
6:50 AM52 °FPassing clouds.5 mph94%30.01 "HgN/A
6:20 AM52 °FPassing clouds.5 mph94%30.01 "HgN/A
5:50 AM50 °FPassing clouds.6 mph94%30.01 "HgN/A
5:20 AM48 °FPassing clouds.5 mph94%30.01 "HgN/A
4:50 AM48 °FPassing clouds.5 mph100%30.01 "HgN/A
4:20 AM48 °FPassing clouds.5 mph100%30.01 "HgN/A
3:50 AM48 °FPassing clouds.6 mph94%30.01 "HgN/A
3:20 AM50 °FPassing clouds.3 mph94%30.01 "HgN/A
2:50 AM50 °FPassing clouds.2 mph94%30.04 "HgN/A
2:20 AM50 °FPassing clouds.6 mph94%30.04 "HgN/A
1:50 AM50 °FClear.6 mph94%30.04 "Hg10 mi
1:20 AM50 °FClear.3 mph94%30.04 "Hg10 mi
12:50 AM52 °FClear.3 mph88%30.04 "Hg10 mi
12:20 AM52 °FPassing clouds.6 mph88%30.04 "HgN/A
11:50 PM
Mon, Jun 27
52 °FPassing clouds.6 mph88%30.07 "HgN/A
11:20 PM52 °FPassing clouds.6 mph88%30.07 "HgN/A
10:50 PM52 °FClear.7 mph82%30.07 "Hg10 mi
10:20 PM54 °FSunny.10 mph82%30.07 "Hg10 mi
9:50 PM54 °FPassing clouds.12 mph77%30.07 "HgN/A
9:20 PM55 °FPassing clouds.9 mph72%30.04 "HgN/A
8:50 PM55 °FPassing clouds.10 mph72%30.04 "HgN/A
8:20 PM55 °FPassing clouds.13 mph72%30.04 "HgN/A
7:50 PM57 °FPassing clouds.15 mph67%30.04 "HgN/A
7:20 PM57 °FPassing clouds.15 mph67%30.04 "HgN/A
Weather by CustomWeather, © 2016

See weather overviewHow to use our weather pages